EXS38B EGPH-ENGM

Flight info

Callsign EXS38B
Flight time N/A
Altitude 27000
Route GRICE P600 GLESK/N0379F250 P600 ADN/N0418F310 DCT LESNI/N0373F250 P600 OVDAN/N0451F390 DCT KLONN DCT OSKOM DCT RIPAM
Aircraft A332/H-SDE3GHIJ2J3J5M1RVWXY/LB2D1

Departure

Time 2026-05-04 10:25
Airport Edinburgh Airport (EGPH)

Arrival

Time N/A
Airport Oslo-Gardermoen International Airport (ENGM)
Time Latitude Longitude Altitude Speed Heading
2026-05-04 09:52 55.95017 -3.36081 115 ft 0 kts 248°
2026-05-04 10:16 55.95022 -3.36062 120 ft 4 kts 248°
2026-05-04 10:16 55.95031 -3.36017 115 ft 4 kts 248°
2026-05-04 10:16 55.95041 -3.35974 115 ft 4 kts 248°
2026-05-04 10:17 55.95049 -3.35938 115 ft 4 kts 253°
2026-05-04 10:17 55.95053 -3.35892 116 ft 4 kts 274°
2026-05-04 10:19 55.95041 -3.35822 115 ft 0 kts 298°
2026-05-04 10:20 55.95043 -3.35829 115 ft 2 kts 298°
2026-05-04 10:20 55.95058 -3.35879 124 ft 7 kts 297°
2026-05-04 10:20 55.95085 -3.35978 115 ft 11 kts 291°
2026-05-04 10:20 55.95115 -3.36117 116 ft 10 kts 294°
2026-05-04 10:21 55.95158 -3.36161 116 ft 6 kts 12°
2026-05-04 10:21 55.95197 -3.36090 115 ft 10 kts 53°
2026-05-04 10:21 55.95244 -3.35955 116 ft 16 kts 58°
2026-05-04 10:21 55.95311 -3.35759 116 ft 21 kts 59°
2026-05-04 10:22 55.95453 -3.35413 116 ft 13 kts 12°
2026-05-04 10:22 55.95493 -3.35440 115 ft 0 kts 326°
2026-05-04 10:22 55.95496 -3.35443 115 ft 3 kts 326°
2026-05-04 10:23 55.95530 -3.35481 114 ft 9 kts 329°
2026-05-04 10:23 55.95555 -3.35595 114 ft 12 kts 256°
2026-05-04 10:25 55.93539 -3.42163 2378 ft 159 kts 258°
2026-05-04 10:25 55.93611 -3.44245 2839 ft 182 kts 293°
2026-05-04 10:25 55.94588 -3.45754 3479 ft 200 kts 337°
2026-05-04 10:25 55.95941 -3.46587 4156 ft 211 kts 335°
2026-05-04 10:26 55.97326 -3.47701 4809 ft 229 kts 329°
2026-05-04 10:26 55.98785 -3.49094 5471 ft 245 kts 329°
2026-05-04 10:26 56.00333 -3.50571 6099 ft 259 kts 329°
2026-05-04 10:26 56.01932 -3.52089 6285 ft 261 kts 329°
2026-05-04 10:27 56.03537 -3.53594 6383 ft 260 kts 330°
2026-05-04 10:27 56.05156 -3.55100 6914 ft 263 kts 329°
2026-05-04 10:27 56.06793 -3.56617 7867 ft 266 kts 330°
2026-05-04 10:27 56.08443 -3.58144 8898 ft 268 kts 330°
2026-05-04 10:28 56.10114 -3.59689 9854 ft 272 kts 330°
2026-05-04 10:28 56.11818 -3.61267 10546 ft 284 kts 330°
2026-05-04 10:28 56.13649 -3.62966 10923 ft 307 kts 330°
2026-05-04 10:28 56.15594 -3.64765 11492 ft 320 kts 331°
2026-05-04 10:29 56.17694 -3.66237 12252 ft 330 kts 344°
2026-05-04 10:29 56.19993 -3.66496 13054 ft 340 kts
2026-05-04 10:29 56.22264 -3.65205 13887 ft 349 kts 24°
2026-05-04 10:29 56.24397 -3.63003 14654 ft 355 kts 30°
2026-05-04 10:30 56.26419 -3.60496 15380 ft 361 kts 33°
2026-05-04 10:30 56.28451 -3.57763 16103 ft 366 kts 34°
2026-05-04 10:30 56.30484 -3.54972 16868 ft 370 kts 34°
2026-05-04 10:30 56.32542 -3.52170 17612 ft 373 kts 34°
2026-05-04 10:31 56.34645 -3.49355 18371 ft 377 kts 33°
2026-05-04 10:31 56.36773 -3.46550 19012 ft 380 kts 33°
2026-05-04 10:32 56.50056 -3.29620 22919 ft 397 kts 31°
2026-05-04 10:33 56.52350 -3.26800 23513 ft 400 kts 31°
2026-05-04 10:33 56.54662 -3.23951 24016 ft 404 kts 31°
2026-05-04 10:33 56.56996 -3.21066 24487 ft 406 kts 31°
2026-05-04 10:33 56.59339 -3.18161 24991 ft 409 kts 31°
2026-05-04 10:34 56.61657 -3.15276 25459 ft 410 kts 31°
2026-05-04 10:34 56.64017 -3.12332 25937 ft 413 kts 31°
2026-05-04 10:34 56.66385 -3.09373 26408 ft 415 kts 31°
2026-05-04 10:34 56.68767 -3.06391 26843 ft 417 kts 30°
2026-05-04 10:35 56.71162 -3.03389 26999 ft 418 kts 30°
2026-05-04 10:35 56.73559 -3.00382 27028 ft 418 kts 31°
2026-05-04 10:35 56.75964 -2.97361 27348 ft 421 kts 31°
2026-05-04 10:35 56.78379 -2.94319 27831 ft 423 kts 30°
2026-05-04 10:36 56.80797 -2.91267 28362 ft 424 kts 30°
2026-05-04 10:36 56.83237 -2.88183 28793 ft 428 kts 30°
2026-05-04 10:36 56.85695 -2.85072 29188 ft 431 kts 30°
2026-05-04 10:36 56.88167 -2.81937 29662 ft 433 kts 30°
2026-05-04 10:37 56.90648 -2.78784 30115 ft 435 kts 30°
2026-05-04 10:37 56.93144 -2.75612 30450 ft 438 kts 30°
2026-05-04 10:37 56.95657 -2.72415 30781 ft 441 kts 30°
2026-05-04 10:37 56.98188 -2.69190 30960 ft 444 kts 30°
2026-05-04 10:39 57.15925 -2.46385 30991 ft 447 kts 30°
2026-05-04 10:40 57.21015 -2.39794 30994 ft 447 kts 30°
2026-05-04 10:40 57.26098 -2.33184 30993 ft 447 kts 30°
2026-05-04 10:41 57.30665 -2.25241 30993 ft 458 kts 46°
2026-05-04 10:41 57.33911 -2.14931 30992 ft 468 kts 59°
2026-05-04 10:42 57.36586 -2.03897 31028 ft 470 kts 61°
2026-05-04 10:42 57.39162 -1.92706 30999 ft 474 kts 62°
2026-05-04 10:43 57.41743 -1.81528 31007 ft 474 kts 61°
2026-05-04 10:45 57.52160 -1.36489 31007 ft 474 kts 62°
2026-05-04 10:45 57.54743 -1.25182 31007 ft 474 kts 62°
2026-05-04 10:46 57.57309 -1.13882 31004 ft 474 kts 62°
2026-05-04 10:46 57.59868 -1.02553 31000 ft 475 kts 62°
2026-05-04 10:47 57.62423 -0.91182 31000 ft 475 kts 62°
2026-05-04 10:47 57.64947 -0.79892 31001 ft 475 kts 62°
2026-05-04 10:49 57.75103 -0.33828 30998 ft 480 kts 62°
2026-05-04 10:50 57.77621 -0.22242 30998 ft 480 kts 62°
2026-05-04 10:51 57.86416 0.18697 32283 ft 490 kts 63°
2026-05-04 10:52 57.87678 0.24649 32781 ft 489 kts 63°
2026-05-04 10:52 57.88914 0.30499 33273 ft 487 kts 63°
2026-05-04 10:52 57.90158 0.36400 33724 ft 487 kts 64°
2026-05-04 10:54 57.98844 0.78044 36153 ft 489 kts 65°
2026-05-04 10:54 58.00075 0.84016 36488 ft 489 kts 65°
2026-05-04 10:56 58.08211 1.26184 38712 ft 488 kts 69°
2026-05-04 10:56 58.09328 1.32238 38901 ft 489 kts 69°
2026-05-04 10:57 58.11580 1.44420 38966 ft 491 kts 69°
2026-05-04 10:57 58.13830 1.56636 38952 ft 491 kts 69°
2026-05-04 10:58 58.16059 1.68773 38952 ft 491 kts 69°
2026-05-04 10:58 58.18300 1.81005 38947 ft 491 kts 69°
2026-05-04 10:59 58.20538 1.93272 38950 ft 493 kts 69°
2026-05-04 10:59 58.22777 2.05591 38947 ft 495 kts 69°
2026-05-04 11:00 58.24640 2.15877 38941 ft 495 kts 69°
2026-05-04 11:02 58.33529 2.65499 38943 ft 496 kts 70°
2026-05-04 11:05 58.49953 3.59477 38941 ft 502 kts 70°
2026-05-04 11:06 58.52128 3.72152 38941 ft 501 kts 70°
2026-05-04 11:06 58.54298 3.84848 38933 ft 502 kts 70°
2026-05-04 11:10 58.69303 4.74217 38930 ft 504 kts 70°
2026-05-04 11:12 58.77764 5.25651 38918 ft 504 kts 71°
2026-05-04 11:12 58.79868 5.38521 38917 ft 504 kts 71°
2026-05-04 11:13 58.81967 5.51404 38917 ft 504 kts 71°
2026-05-04 11:13 58.84065 5.64330 38912 ft 504 kts 71°
2026-05-04 11:14 58.86144 5.77180 38911 ft 504 kts 71°
2026-05-04 11:16 58.94460 6.29157 38902 ft 508 kts 71°
2026-05-04 11:16 58.96532 6.42239 38895 ft 507 kts 71°
2026-05-04 11:17 58.98588 6.55276 38891 ft 506 kts 71°
2026-05-04 11:19 59.05887 7.01151 37238 ft 508 kts 71°